sat.trackr.live / text

‹ back to catalog

LEMUR-2-GRAM-E-SUE

NORAD 67370 · 2026-004H

PAYLOAD ACTIVE UNKNOWN

§ Identity

Operator
Country
US
Launch date
2026-01-11
Launch site
AFWTR
Launch vehicle
Mass (kg)
RCS (m²)

Purposes: earth_obs

External: N2YO · Heavens-Above · Gunter

§ Orbital elements

Epoch: 2026-05-24T23:23:06.386208Z

Period
96.75 min
Inclination
97.7976°
Eccentricity
0.0005969
Mean motion
14.88348657 rev/d
Perigee alt
598.9 km
Apogee alt
607.3 km
Semi-major
6,981.2 km
B*
2.0218e-4
RAAN
143.8964°
Arg perigee
210.2968°
Mean anomaly
149.7905°
Rev number
1,984

§ Raw data

LEMUR-2-GRAM-E-SUE1 67370U 26004H   26144.97437947  .00001817  00000+0  20218-3 0  99942 67370  97.7976 143.8964 0005969 210.2968 149.7905 14.88348657 19843

JSON: /api/v1/satellites/67370 · /tle

For live sub-satellite position, see the globe view (requires WebGL).

§ Visibility from observer

Set your observer location to see the next 7 days of passes ≥ 10°. The values pass through the URL so the page stays shareable.

No JS? Fill the form by hand. The geolocation button needs JavaScript.

§ Radio — SatNOGS DB

ModeDescriptionDownlinkUplink
BPSK Mode U - Transmitter 401.100 MHz

1 transmitter · refreshed weekly from db.satnogs.org